Погода в Сновском

Россия / Брянская область     52°29′20″N   32°04′17″E
темп.,
°C
ветер,
м/с
пор.,
м/с
влажн.,
%
обл.,
%
осадки,
мм/ч
давл.,
гПа
погр.,
м
17 апреля, сб
сб1700:00+6вюв379238 0.0 1015158
03:00+5вюв36955 0.0 1016117
06:00+4вюв239471 0.0 101753
09:00+7юв347951 0.0 1018552
12:00+10вюв236374 0.0 1019978
15:00+11всв1155100 0.1 10181285
18:00+10ссз2265100 0.1 1017474
21:00+7зсз3591100 3.8 1016853
18 апреля, вс
вс1800:00+6ююз61093100 9.1 1014852
03:00+4ююв81296100 15.8 1014742
06:00+4юв71296100 3.0 1015631
09:00+5вюв61093100 3.1 1016766
12:00+7вюв688180 0.1 1017935
15:00+7вюв6880100 0.6 1017919
18:00+6в4887100 0.9 1017595
21:00+5всв499112 0.9 1018263
19 апреля, пн
пн1900:00+5всв3890100 0.0 1018336
03:00+6св488890 0.0 1018377
06:00+5св499336 0.0 1018363
09:00+6св5892100 0.2 1017826
12:00+7всв4790100 0.4 1017544
15:00+10всв6878100 1.6 10161191
18:00+8всв6108897 4.1 1016604
21:00+7всв7129396 4.6 1015499
20 апреля, вт
вт2000:00+7в51289100 0.8 1014511
03:00+7всв6119498 2.5 1013410
06:00+6всв61190100 0.0 1012547
09:00+7всв51090100 0.0 1011827
12:00+6св61191100 0.1 1009639
15:00+6ссв71292100 0.1 1004627
18:00+4с81596100 1.0 1000609
21:00+4с81396100 4.2 997815
21 апреля, ср
ср2100:00+2сз81597100 2.6 995531
03:00+1зсз81598100 6.8 996539
06:00+2зсз81497100 1.4 999799
09:00+3з71397100 1.6 10021001
12:00+5з71293100 0.3 10061034
15:00+8зюз6117477 0.6 10091284
18:00+8зюз51072100 0.0 1012732
21:00+5ююз388437 0.0 1014128